Regional Weather Roundup
Issued by NWS Upton, NY

Current Version | Previous Version | Graphics & Text | Print | Product List | Glossary Off
Versions: 1 2 3 4 5 6 7 8 9 10 11 12 13 14 15 16 17 18 19 20 21 22 23 24 25 26 27

000
ASUS41 KOKX 081108
RWROKX

REGIONAL WEATHER ROUNDUP
NATIONAL WEATHER SERVICE NEW YORK NY
600 AM EST THU DEC 08 2016

NOTE: "FAIR" INDICATES FEW OR NO CLOUDS BELOW 12,000 FEET WITH NO
SIGNIFICANT WEATHER AND/OR OBSTRUCTIONS TO VISIBILITY.

NYZ071-072-176-178-NJZ106-104-081200-
NEW YORK CITY METRO AREA

CITY           SKY/WX    TMP DP  RH WIND       PRES   REMARKS
Central Park   PTCLDY    41  28  60 VRB3      30.00R
Wall St Helipt CLOUDY    40  33  76 W7        30.00R
Bronx Bot Gard NOT AVBL
LaGuardia APRT MOCLDY    44  29  55 W8        29.97S
Kennedy INTL   CLOUDY    40  31  70 W9        29.99S WCI  34
Breezy Point     N/A     39 N/A N/A W7          N/A  WCI  34
Newark/Liberty CLOUDY    35  31  85 SW6       29.99R WCI  30
Teterboro      PTCLDY    36  31  82 CALM      29.97S
$$

NYZ177-179-078>081-081200-
LONG ISLAND NEW YORK

CITY           SKY/WX    TMP DP  RH WIND       PRES   REMARKS
Jones Beach      N/A     39 N/A N/A W7          N/A  WCI  34
Matinecock PT    N/A     41 N/A N/A SW5         N/A
Farmingdale    MOCLDY    34  32  92 CALM      29.98S
MacArthur/ISP  MOCLDY    31  30  96 CALM      29.97S
Shirley        CLOUDY    31  30  96 CALM      29.98S FOG
Westhampton    PTCLDY    26  23  88 CALM      29.99R
Southampton    NOT AVBL
Bridgehampton  NOT AVBL
East Hampton     N/A     28  28  96 CALM      29.96F
Montauk          N/A     40  37  89 CALM      29.97F
$$

NYZ052-065-067-081200-
HUDSON VALLEY

CITY           SKY/WX    TMP DP  RH WIND       PRES   REMARKS
White Plains   CLOUDY    35  30  82 W5        29.95S WCI  31
Newburgh       MOCLDY    34  30  86 W5        29.97R WCI  30
Montgomery     MOCLDY    30  28  92 SW6       29.95R WCI  24
Poughkeepsie   CLOUDY    29  27  92 CALM      29.95S
Albany         FOG       32  32 100 VRB5      29.94F VSB 1/4 WCI  27
$$

NJZ001-105-106-008-010-013-015-019>022-104-081200-
NEW JERSEY

CITY           SKY/WX    TMP DP  RH WIND       PRES   REMARKS
Newark/Liberty CLOUDY    35  31  85 SW6       29.99R WCI  30
Teterboro      PTCLDY    36  31  82 CALM      29.97S
Caldwell       CLOUDY    32  30  92 CALM      29.99R
Somerville     CLOUDY    29  27  92 CALM      29.98S
Linden         PTSUNNY   36  30  78 CALM      30.00R
Sussex         CLOUDY    29  29 100 CALM      29.97R FOG
Andover          N/A     30  29  96 CALM      29.97S
Trenton        MOCLDY    32  29  88 CALM      30.00R
Millville      PTCLDY    28  28 100 CALM      30.03S
Atlantic City  PTCLDY    34  31  88 W5        30.03R WCI  30
Wrightstown    PTCLDY    31  29  92 SW5       29.99S WCI  26
Toms River     PTCLDY    27  26  96 CALM      30.02S
Belmar         CLOUDY    31  30  96 SW6       30.01R WCI  25
$$

PAZ047>061-062-071-081200-
EASTERN PENNSYLVANIA

CITY           SKY/WX    TMP DP  RH WIND       PRES   REMARKS
Philadelphia   MOCLDY    37  28  70 SW7       30.04R WCI  32
Allentown      CLOUDY    32  25  75 SW6       30.00R WCI  26
Scranton       CLOUDY    34  24  67 SW6       29.96F WCI  29
$$

CTZ002-004>006-009-010-012-RIZ004-006-007-MAZ004-011-015-081200-
SOUTHERN NEW ENGLAND
 IN CT

CITY           SKY/WX    TMP DP  RH WIND       PRES   REMARKS
Bradley INTL   MOCLDY    29  27  92 CALM      29.95S FOG
Hartford       FOG       31  31 100 CALM      29.95F VSB 1/4
Danbury        CLEAR     27  25  92 CALM      29.96F
Wtrbury/Oxford PTCLDY    32  28  86 W3        29.94F
Bridgeport     NOT AVBL
Meriden        FOG       31  29  92 CALM      29.96S VSB 1/4
New Haven      CLOUDY    31  29  92 CALM      29.96S
Chester        CLOUDY    36  34  93 SW3       29.94S
Groton         CLOUDY    34  33  96 CALM      29.96S FOG
Wilimantic     FOG       32  31  96 CALM      29.96S VSB 1/4

 IN RI

CITY           SKY/WX    TMP DP  RH WIND       PRES   REMARKS
Providence     MOCLDY    34  32  92 CALM      29.95F FOG
Block Island   CLOUDY    43  36  76 W5        29.96F
Westerly       CLOUDY    31  28  89 CALM      29.96F
 IN MA

CITY           SKY/WX    TMP DP  RH WIND       PRES   REMARKS
Boston         PTCLDY    34  32  92 SW6       29.95F WCI  29
Worcester      FOG       30  29  96 W8        29.90F VSB 1   WCI  22
Westfield      FOG       27  27 100 SW3       29.94S VSB 1/2
Provincetown   CLEAR     42  31  64 W14       29.95S
Nantucket      PTCLDY    40  35  83 NW9       29.96R WCI  34
$$

ANZ330-335-338-340-345-350-353-355-081200-
COASTAL MARINE OBSERVATIONS


STATION/POSITION TIME  SKY/WX   TEMP    WIND        PRES    VSBY  WAVE
                                AIR SEA DIR/SP/G                  HT/PER
                 (UTC)          (F)     (DEG/KT/KT) (MB)    (MI)  (FT/S)
NY HARB ENTRANCE 1050            44 52  280/ 14/ 16 1015.3          3/ 9
20 S FIRE ISLAND 1050            47 53  280/ 12/ 14 1014.9          4/ 8
GREAT SOUTH BAY  1030            40 43                N/A
23 SSW MONTAUK P 1050            46 54  270/ 10/ 14 1015.2          4/ 8
15 E BARNEGAT LI 1030               53                N/A           4/ 9
HUDSON CANYON    0950            49 57              1015.5          5/ 8
KINGS POINT      1042            42 48              1014.7
EXECUTION ROCKS  1045            42     250/  6/  8   N/A
CENTRAL LI SOUND 1045            45 50  260/ 10/ 12   N/A           1/ 3
EASTERN LI SOUND NOT AVBL
ROBBINS REEF     1042            39     260/  9/ 10 1015.5
$$


>>>>>>>>>>>>>>>>>>>>>>>>>>>> KEY <<<<<<<<<<<<<<<<<<<<<<<<<<<
>                                                          <
>     SKY/WX - Sky Condition/Present Weather               <
>     TMP    - Temperature in Fahrenheit                   <
>     DP     - Dew Point in Fahrenheit                     <
>     RH     - Relative Humidity in Percent                <
>     WIND   - Direction (from) and Speed in MPH           <
>     PRES   - Mean Sea Level Pressure (inches of Hg)      <
>     WCI    - Wind Chill Index                            <
>     VSB    - VISIBILITY IN MILES                         <
>     HX     - HEAT INDEX                                  <
>     TC     - TEMPERATURE IN CELSIUS                      <
>     VRB    - VARIABLE WIND DIRECTION                     <
>                                                          <
>>>>>>>>>>>>>>>>>>>>>>>>>>>> KEY <<<<<<<<<<<<<<<<<<<<<<<<<<<




USA.gov is the U.S. government's official web portal to all federal, state and local government web resources and services.